Miscellaneous Local Product
Issued by NWS Hastings, NE

Home | Current Version | Previous Version | Graphics & Text | Print | Product List | Glossary On
Versions: 1 2 3 4 5 6 7 8 9 10 11 12 13 14 15 16 17 18 19 20 21 22 23 24 25 26 27 28 29 30 31 32 33 34 35 36 37 38 39 40 41 42 43 44 45 46 47 48 49 50
000
AXUS43 KGID 181502
MISGRI

GID CWA HOURLY WEATHER ROUNDUP
NATIONAL WEATHER SERVICE HASTINGS NE
900 AM CST WED JAN 18 2017

NOTE: "FAIR" INDICATES FEW OR NO CLOUDS BELOW 12,000 FEET WITH NO
SIGNIFICANT WEATHER AND/OR OBSTRUCTIONS TO VISIBILITY.

...SOUTH CENTRAL NEBRASKA...

CITY           SKY/WX    TMP DP  RH WIND       PRES   REMARKS
GRAND ISLAND   CLEAR     34  31  88 S9        29.96F WCI  27
HASTINGS       CLEAR     31  28  89 S6        29.99F WCI  25
KEARNEY        CLOUDY    32  27  80 SW9       29.96S WCI  24
ORD            CLOUDY    25  21  85 CALM      29.93R
YORK           SUNNY     32  30  93 S7        30.00S WCI  26
AURORA         CLEAR     34  31  88 S7        29.98S WCI  28
LEXINGTON      CLOUDY    30  27  90 SW5       29.95S WCI  25
HOLDREGE       CLOUDY    31  28  90 SW5       29.97R WCI  26
HEBRON         CLOUDY    32  30  90 CALM      30.03S

...NEBRASKA PANHANDLE...

CITY           SKY/WX    TMP DP  RH WIND       PRES   REMARKS
CHADRON        CLOUDY    20  12  71 W12       29.85F WCI   8
ALLIANCE       CLOUDY    23  16  74 W3        29.85F
SCOTTSBLUFF    CLOUDY    22  15  75 NW5       29.90F WCI  16
SIDNEY         CLOUDY    27  17  66 W9        29.90F WCI  18

...WESTERN AND NORTH CENTRAL NEBRASKA...

CITY           SKY/WX    TMP DP  RH WIND       PRES   REMARKS
VALENTINE      CLOUDY    26  19  74 W8        29.85R WCI  18
AINSWORTH      CLOUDY    32  24  73 SW6       29.85R WCI  26
ONEILL         CLOUDY    31  27  83 S8        29.87F WCI  24
BROKEN BOW     CLOUDY    29  25  85 N5        29.91F WCI  24
IMPERIAL       CLOUDY    24  18  77 W6        29.93S WCI  17
NORTH PLATTE   CLOUDY    21  17  84 NW3       29.92F
MCCOOK         CLOUDY    28  26  92 W6        29.95F WCI  22

...EASTERN NEBRASKA...

CITY           SKY/WX    TMP DP  RH WIND       PRES   REMARKS
NORFOLK        CLOUDY    33  29  85 S9        29.94S WCI  25
SO SIOUX CITY  CLOUDY    29  26  89 SE8       29.95F WCI  21
TEKAMAH        CLOUDY    32  29  88 S9        30.00F WCI  24
COLUMBUS       CLOUDY    34  28  80 S6        29.98S WCI  29
ALBION         CLEAR     31  27  86 CALM      29.95S
OMAHA EPPLEY   CLOUDY    30  26  85 SE9       30.04S WCI  22
OFFUTT AFB     CLOUDY    28  28 100 E5        30.04S WCI  23
MILLARD        CLOUDY    31  29  93 SE3       30.04S
LINCOLN        SUNNY     31  29  92 S7        30.04S WCI  24
NEBRASKA CITY  SUNNY     30  29  96 S10       30.06R WCI  21
BEATRICE       CLOUDY    31  29  92 SE5       30.05S WCI  27
FALLS CITY     SUNNY     30  28  92 SE6       30.09S WCI  24

...NORTHERN KANSAS...

CITY           SKY/WX    TMP DP  RH WIND       PRES   REMARKS
GOODLAND       CLOUDY    28  24  85 W6        29.93R WCI  22
HILL CITY      CLOUDY    34  32  92 SW7       29.99F WCI  28
NORTON         SUNNY     30  27  86 S5        29.97R WCI  25
PHILLIPSBURG   CLEAR     30  30 100 CALM      30.00F
SMITH CENTER   MOSUNNY   30  28  93 CALM      30.01S
RUSSELL        CLOUDY    35  31  85 S12       30.02S WCI  27
CONCORDIA      CLOUDY    33  30  88 SE3       30.04S
SALINA         SUNNY     30  28  92 S8        30.08R WCI  22
TOPEKA         SUNNY     32  29  88 E5        30.13R WCI  27



USA.gov is the U.S. government's official web portal to all federal, state and local government web resources and services.